www.pogodaiklimat.ru

Погода и климат >> Архив погоды >> Малайзия >> Бинталу


ПОГОДА в Бинталу

  • Прогноз погоды в Бинталу
  • Монитор погоды в Бинталу

АРХИВ ПОГОДЫ в Бинталу

Время (UTC), дата Ветер
(напр.,м/с)
 
Видим.   Явления Облачность Т
(С)
Тd
(С)
f
(%)
Тe
(С)
Тes
(С)
Комфортность P
(гПа)
Po
(гПа)
Тmin
(С)
Tmax
(С)
R
(мм)
R24
(мм)
S
(см)
15 20.05 штиль 0 18 км 9/3 480 м
[Sc Ac lent Ci fib]
+25.9 +25.4 97 +38 +38 очень
душно
1010.3 1007.6
18 20.05 штиль 0 18 км 9/3 480 м
[Sc Ac trans Ci fib]
+26.3 +25.7 97 +39 +39 очень
душно
1010.1 1007.4
21 20.05 В 1 6000 м дымка 9/4 60 м
[Sc Ac trans Ci fib]
+25.2 +24.7 97 +35 +35 очень
душно
1009.7 1007.0
00 21.05 СВ 3 8000 м дымка 9/6 420 м
[Cb cap Ac As]
+26.3 +25.4 95 +38 +39 очень
душно
1011.3 1008.6 +25.1
03 21.05 В 2 15 км осадки на расстоянии 9/5 420 м
[Cb cap Ac As]
+29.1 +26.5 86 +45 +49 опасность
перегрева
1012.2 1009.5
06 21.05 З 1 25 км гроза без осадков 9/6 420 м
[Cb cap Ac As]
+26.7 +24.4 87 +37 +41 очень
душно
1010.3 1007.6
09 21.05 ЮЗ 4 30 км 9/3 420 м
[Cu med, cong Ac trans Ci fib]
+28.2 +24.6 81 +40 +41 очень
душно
1009.1 1006.4
12 21.05 штиль 0 18 км 9/1 480 м
[Sc Ac trans Ci fib]
+25.3 +24.3 94 +35 +35 очень
душно
1009.9 1007.2 +29.5
15 21.05 штиль 0 18 км 9/3 480 м
[Sc Ac trans Ci fib]
+24.8 +23.9 95 +34 +34 очень
душно
1011.8 1009.1
18 21.05 В 1 18 км 9/3 480 м
[Sc Ac trans Ci fib]
+24.0 +23.6 98 +33 +33 очень
душно
1011.1 1008.4
21 21.05 В 3 18 км 9/1 480 м
[Sc Ac trans Ci fib]
+24.3 +23.9 98 +33 +33 очень
душно
1010.0 1007.3
00 22.05 ЮВ 2 8000 м дымка 9/5 <50 м
[St Ac trans Ci fib]
+25.3 +24.7 96 +36 +37 очень
душно
1011.1 1008.4 +23.8
03 22.05 Ю 1 30 км 9/3 420 м
[Cu med, cong Ac lent Ci fib]
+30.9 +25.3 72 +45 +53 опасность
перегрева
1011.7 1009.0
06 22.05 СЗ 2 30 км 9/1 480 м
[Cu med, cong Ac lent Ci fib]
+33.1 +25.0 63 +47 +55 опасность
перегрева
1009.0 1006.3
09 22.05 З 3 30 км 9/3 450 м
[Cb cap Ac lent Ci fib]
+32.1 +25.5 68 +47 +48 опасность
перегрева
1007.6 1004.9
12 22.05 штиль 0 18 км 9/3 480 м
[Sc Ac trans Ci fib]
+27.8 +25.5 87 +41 +41 опасность
перегрева
1009.1 1006.4 +33.4
15 22.05 В 2 18 км 9/3 480 м
[Sc Ac lent Ci fib]
+26.5 +24.8 90 +38 +38 очень
душно
1011.0 1008.3
18 22.05 штиль 0 18 км 9/3 480 м
[Sc Ac As]
+25.7 +24.4 93 +36 +36 очень
душно
1010.7 1008.0
21 22.05 В 2 18 км 9/3 480 м
[Sc Ac trans Ci fib]
+25.0 +24.2 95 +34 +34 очень
душно
1010.1 1007.4
00 23.05 В 2 30 км 9/6 50 м
[Cu med, cong Ac trans Ci fib]
+26.7 +25.2 91 +38 +39 очень
душно
1012.0 1009.3 +24.8
03 23.05 СВ 2 18 км осадки на расстоянии 9/6 420 м
[Cb cap Ac trans Ci fib]
+31.1 +25.8 73 +46 +51 опасность
перегрева
1011.9 1009.2
06 23.05 СЗ 5 30 км гроза без осадков {ливн. осадки} 9/5 450 м
[Cb cap Ac trans Ci fib]
+31.8 +25.9 71 +47 +50 опасность
перегрева
1010.0 1007.3 0.0
09 23.05 Ю 2 18 км гроза без осадков 9/4 420 м
[Cb cap Ac trans Ci fib]
+28.3 +25.6 85 +42 +43 опасность
перегрева
1008.7 1006.0
12 23.05 В 2 18 км {гроза} 9/4 420 м
[Sc Ac trans Ci fib]
+25.9 +25.4 97 +38 +38 очень
душно
1010.0 1007.3 +32.4
15 23.05 В 1 18 км 9/3 420 м
[Sc Ac trans Ci fib]
+24.7 +24.4 98 +34 +34 очень
душно
1012.4 1009.7
18 23.05 ЮВ 2 18 км 9/3 480 м
[Sc Ac trans Ci fib]
+23.9 +23.5 98 +32 +32 очень
душно
1010.9 1008.2
21 23.05 В 1 18 км 9/4 150 м
[Sc Ac trans Ci fib]
+23.9 +23.4 97 +32 +32 очень
душно
1010.0 1007.3
00 24.05 ЮВ 3 30 км 9/1 50 м
[Sc Ac trans Ci fib]
+25.4 +24.4 94 +35 +37 очень
душно
1012.1 1009.4 +23.8 0.0
03 24.05 ЮВ 2 30 км 9/4 420 м
[Cu med, cong Ac lent Ci fib]
+31.3 +24.9 69 +45 +51 опасность
перегрева
1011.6 1008.9
06 24.05 СЗ 3 30 км 9/3 420 м
[Cu med, cong Ac lent Ci fib]
+33.5 +25.8 64 +49 +54 опасность
перегрева
1009.1 1006.4
09 24.05 СЗ 3 30 км 9/3 450 м
[Cb cap Ac lent Ci fib]
+32.5 +25.8 68 +48 +49 опасность
перегрева
1007.9 1005.2
12 24.05 штиль 0 18 км гроза без осадков 9/3 450 м
[Cb cap Ac lent Ci fib]
+27.6 +25.6 89 +41 +41 опасность
перегрева
1009.5 1006.8 +33.9
15 24.05 В 2 18 км 9/3 480 м
[Cu hum Ac trans Ci fib]
+25.8 +24.8 94 +37 +37 очень
душно
1010.5 1007.8
18 24.05 штиль 0 18 км 9/1 480 м
[Sc Ac lent Ci fib]
+25.2 +24.3 95 +35 +35 очень
душно
1008.7 1006.0
21 24.05 ЮВ 2 18 км 9/4 150 м
[Sc Ac lent Ci fib]
+24.8 +24.3 97 +34 +34 очень
душно
1008.9 1006.2
00 25.05 ЮВ 3 30 км 9/1 50 м
[Cb cap Ac lent Ci fib]
+26.1 +24.8 93 +37 +39 очень
душно
1010.4 1007.7 +24.6
03 25.05 Ю 2 30 км 9/4 420 м
[Cu med, cong Ac lent Ci fib]
+31.8 +25.3 69 +46 +53 опасность
перегрева
1010.5 1007.8
06 25.05 СЗ 2 30 км 9/4 480 м
[Cu hum Ac trans Ci fib]
+33.9 +27.0 67 +52 +58 опасность
перегрева
1007.5 1004.8
09 25.05 СЗ 4 30 км 9/3 450 м
[Cb cap Ac trans Ci ing]
+32.7 +26.2 69 +49 +50 опасность
перегрева
1006.7 1004.0
12 25.05 штиль 0 18 км 9/1 480 м
[Sc Ac lent Ci fib]
+28.3 +26.0 87 +42 +42 опасность
перегрева
1008.7 1006.0 +34.5
15 25.05 штиль 0 18 км 9/3 480 м
[Sc Ac lent Ci fib]
+26.3 +25.3 94 +38 +38 очень
душно
1010.2 1007.5
18 25.05 штиль 0 18 км 9/3 480 м
[Sc Ac lent Ci fib]
+25.7 +24.9 95 +36 +36 очень
душно
1008.8 1006.1
21 25.05 В 1 18 км зарница 9/4 450 м
[Cb cap Ac trans Ci fib]
+25.1 +24.6 97 +35 +35 очень
душно
1008.8 1006.1
00 26.05 В 3 13 км дымка 9/5 480 м
[Sc Ac trans Ci fib]
+25.4 +24.6 95 +36 +37 очень
душно
1010.7 1008.0 +25.0
03 26.05 ЮВ 3 30 км 9/4 480 м
[Cu med, cong Ac trans Ci fib]
+28.8 +25.6 83 +43 +48 опасность
перегрева
1010.1 1007.4
06 26.05 З 2 30 км 9/4 480 м
[Cu med, cong Ac trans Ci fib]
+31.2 +26.2 75 +47 +54 опасность
перегрева
1007.8 1005.1
09 26.05 СЗ 2 30 км 9/4 450 м
[Cb cap Ac trans Ci fib]
+32.2 +26.6 72 +49 +50 опасность
перегрева
1006.8 1004.1
12 26.05 штиль 0 18 км 9/3 450 м
[Cb calv Ac lent Ci fib]
+27.8 +25.9 89 +41 +41 опасность
перегрева
1009.1 1006.4 +32.7
15 26.05 В 2 18 км 9/3 480 м
[Sc Ac lent Ci fib]
+26.5 +25.6 95 +39 +39 очень
душно
1010.3 1007.6
18 26.05 В 2 18 км 9/3 480 м
[Sc Ac trans Ci fib]
+25.9 +25.1 95 +37 +37 очень
душно
1009.4 1006.7
21 26.05 В 2 18 км 9/3 480 м
[Sc Ac trans Ci fib]
+24.8 +23.9 95 +34 +34 очень
душно
1008.8 1006.1
00 27.05 В 3 30 км 9/3 480 м
[Cu med, cong Ac trans Ci fib]
+27.2 +24.7 86 +39 +40 очень
душно
1010.3 1007.6 +24.8
03 27.05 В 2 30 км 9/5 480 м
[Cu med, cong Ac lent Ci fib]
+31.9 +25.5 69 +46 +52 опасность
перегрева
1010.0 1007.3
06 27.05 СЗ 4 30 км 9/3 480 м
[Cu med, cong Ac lent Ci fib]
+33.9 +27.0 67 +52 +56 опасность
перегрева
1007.1 1004.4
09 27.05 С 4 30 км {ливн. осадки} 9/3 450 м
[Cb cap Ac lent Ci fib]
+32.3 +26.3 71 +49 +50 опасность
перегрева
1006.0 1003.3
12 27.05 штиль 0 18 км гроза без осадков 9/3 450 м
[Cb cap Ac lent Ci fib]
+28.6 +26.2 87 +43 +43 опасность
перегрева
1008.3 1005.6 +34.0 0.4

 

Местоположение метеостанции Бинталу (Малайзия): широта 3.20 долгота 113.03 высота над уровнем моря 5 м.

В архиве по умолчанию представлена погода в Бинталу за последнюю неделю. Архивные данные за месяц целиком и за предыдущие месяцы, начиная с января 2011 года, Вы можете получить, выбрав интересующий диапазон дат из раскрывающегося списка и нажав кнопку "Ввод!".


*Определитесь, кто Вы:
робот инопланетянин человек

Внимание! Время в таблицах - всемирное. Для получения местного времени необходимо прибавить поправку, которая равна 8 ч.

Смотрите также архив погоды в соседних городах и на ближайших метеорологических станциях:

Погода в Мири (Малайзия) (164 км)
Погода в Сибу (Малайзия) (165 км)
Погода на Путусиббау (Индонезия) (263 км)
Погода в Бруней аэропорту (Бруней) (285 км)
Погода в Лонгбаване (Индонезия) (300 км)
Погода в Лабуане (Малайзия) (339 км)
Погода в Кучинге (Малайзия) (356 км)
Погода в Синтанге (Индонезия) (381 км)
Погода в Нангапинохе (Индонезия) (419 км)
Погода в Парохе (Индонезия) (444 км)

Пояснения к столбцам:

Ветер - указаны скорость ветра в м/с - средняя за 10 мин, порывы в срок и между сроками (в фигурных скобках) и направление, откуда дует ветер: С - северный, СВ - северо-восточный, В - восточный, ЮВ - юго-восточный, Ю - южный, ЮЗ - юго-западный, З - западный, СЗ - северо-западный.
Видимость - горизонтальная дальность видимости в метрах или километрах. При видимости от 1 до 10 км при отсутствии осадков обычно наблюдается дымка, при ухудшении видимости до 1 км и менее - туман. В сухую погоду видимость может ухудшаться дымом, пылью или мглою.
Явления - указаны атмосферные явления, наблюдавшиеся в срок или в последний час перед сроком; фигурными скобками обозначены явления, наблюдавшиеся между сроками (за 1-3 часа до срока); квадратными скобками обозначены град или гололедные отложения с указанием их диаметра в мм.
Облачность - указаны через наклонную черту общая и нижняя облачность в баллах и высота нижней границы облаков в метрах; квадратными скобками обозначены формы облаков: Ci - перистые, Cs - перисто-слоистые, Cc - перисто-кучевые, Ac - высококучевые, As - высокослоистые, Sc - слоисто-кучевые, Ns - слоисто-дождевые, Cu - кучевые, Cb - кучево-дождевые. Подробнее классификацию облаков см. в Атласе облаков (PDF).
T - Температура воздуха - температура, измеренная на высоте 2 м над землей.
Td - Температура точки росы - температура, при понижении до которой содержащийся в воздухе водяной пар достигнет насыщения.
f - Относительная влажность воздуха - влажноcть воздуха, измеренная на высоте 2 м над землей.
Te - Эффективная температура - температура, которую ощущает одетый по сезону человек в тени. Характеристика душности погоды. При расчете учитывается влияние влажности воздуха и скорости ветра на теплоощущения человека.
Tes - Эффективная температура на солнце - температура, которую ощущает человек, с поправкой на солнечный нагрев. Характеристика знойности погоды. Зависит от высоты солнца над горизонтом, облачности и скорости ветра. Ночью, в пасмурную погоду, а также при ветре 12 м/с и более поправка равна нулю.
P - Атмосферное давление - приведенное к уровню моря атмосферное давление.
Po - Атмосферное давление - измеренное на уровне метеостанции атмосферное давление.
Tmin - Минимальная температура - минимум температуры воздуха на высоте 2 м над землей.
Tmax - Максимальная температура - максимум температуры воздуха на высоте 2 м над землей.
R - Количество осадков - Количество выпавших осадков за период времени, мм. При наведении курсора мыши на число - период времени, за который выпало указанное количество осадков.
R24 - Количество осадков - Количество выпавших осадков за 24 часа, мм.
S - Снежный покров - Высота снежного покрова, см. При наведении курсора мыши на число - состояние снежного покрова и степень покрытия местности в баллах.